This is the latest recevied weather packets stored in our database for station/object GBTWP-2. If no packets are shown the sender has not sent any weather packets the latest 1 day(s).
| Time | Temp. | Humidity | Pressure | Rain* | Wind** | Luminosity | Snow |
|---|---|---|---|---|---|---|---|
| 1778031902 | 9.44° C | 55% | 1011 hPa | 0 mm | 0 m/s | 0 W/m² | - |
| 1778031602 | 10° C | 56% | 1010.8 hPa | 0 mm | 0 m/s | 0 W/m² | - |
| 1778031301 | 10° C | 52% | 1010.7 hPa | 0 mm | 0 m/s | 0 W/m² | - |
| 1778031002 | 10° C | 53% | 1010.8 hPa | 0 mm | 0 m/s | 0 W/m² | - |
| 1778030402 | 10° C | 51% | 1010.5 hPa | 0 mm | 0 m/s | 0 W/m² | - |
| 1778030101 | 10° C | 51% | 1010.7 hPa | 0 mm | 0 m/s | 0 W/m² | - |
| 1778029802 | 10° C | 54% | 1010.5 hPa | 0 mm | 0 m/s | 0 W/m² | - |
| 1778029501 | 10° C | 51% | 1010.5 hPa | 0 mm | 0 m/s | 0 W/m² | - |
| 1778029202 | 10.56° C | 51% | 1010.7 hPa | 0 mm | 0 m/s | 0 W/m² | - |
| 1778028602 | 10.56° C | 51% | 1010.5 hPa | 0 mm | 0 m/s | 0 W/m² | - |
| 1778027702 | 10.56° C | 47% | 1010.5 hPa | 0 mm | 0 m/s | 1 W/m² | - |
| 1778027102 | 10.56° C | 48% | 1010.4 hPa | 0 mm | 0 m/s | 1 W/m² | - |
| 1778026802 | 10.56° C | 47% | 1010.7 hPa | 0 mm | 0 m/s | 2 W/m² | - |
| 1778026202 | 11.11° C | 47% | 1010.4 hPa | 0 mm | 0 m/s | 2 W/m² | - |
| 1778025001 | 11.11° C | 44% | 1010 hPa | 0 mm | 0 m/s | 8 W/m² | - |
| 1778023502 | 11.67° C | 46% | 1009.8 hPa | 0 mm | 0 m/s | 15 W/m² | - |
| 1778023202 | 11.67° C | 44% | 1009.7 hPa | 0 mm | 0 m/s | 11 W/m² | - |
| 1778022602 | 12.22° C | 44% | 1009.6 hPa | 0 mm | 0.45 m/s, 328° | 13 W/m² | - |
| 1778021402 | 12.22° C | 43% | 1009.7 hPa | 0 mm | 0.45 m/s, 330° | 28 W/m² | - |
| 1778021102 | 12.22° C | 43% | 1010 hPa | 0 mm | 1.34 m/s, 221° | 31 W/m² | - |
| 1778020802 | 12.22° C | 44% | 1010 hPa | 0 mm | 0.45 m/s, 320° | 27 W/m² | - |
| 1778020202 | 12.78° C | 43% | 1009.9 hPa | 0 mm | 0.45 m/s, 225° | 32 W/m² | - |
| 1778019902 | 12.78° C | 43% | 1009.7 hPa | 0 mm | 0.45 m/s, 111° | 37 W/m² | - |
| 1778019302 | 12.78° C | 47% | 1009.7 hPa | 0 mm | 0.45 m/s, 255° | 46 W/m² | - |
| 1778018702 | 12.78° C | 46% | 1009.8 hPa | 0 mm | 0.89 m/s, 219° | 52 W/m² | - |
* Rain latest hour (hover to see other rain measurements)
** Current wind speed in m/s (hover to see current wind gust speed)